Weather History for Bolzano, Italy

Change the Weather History Date:

Friday, March 14, 2014

  Actual Average Record
Temperature  
Mean Temperature 54 °F -  
Max Temperature 73 °F 62 °F 75 °F (2012)
Min Temperature 36 °F 38 °F 28 °F (2006)
Degree Days  
Heating Degree Days 10    
Growing Degree Days 4 (Base 50)    
Moisture  
Dew Point 38 °F    
Average Humidity 52    
Maximum Humidity 87    
Minimum Humidity 20    
Precipitation  
Precipitation 0.00 in 0.06 in - ()
Sea Level Pressure  
Sea Level Pressure 30.25 in    
Wind  
Wind Speed 2 mph ()    
Max Wind Speed 6 mph    
Max Gust Speed -    
Visibility 17.8 miles    
Events      
Averages and records for this station are not official NWS values.
T = Trace of Precipitation, MM = Missing Value Source: Averaged Metar Reports

Daily Weather History Graph

Daily Weather History Graph

Search for Another Location

Airport:

Trip Planner

Search our weather history database for the weather conditions in past years. The results will help you decide how hot, cold, wet, or windy it might be!

Date:

Astronomy

Mar. 14, 2014 Rise Set
Actual Time 6:29 AM CET 6:18 PM CET
Civil Twilight 5:59 AM CET 6:48 PM CET
Nautical Twilight 5:24 AM CET 7:23 PM CET
Astronomical Twilight 4:49 AM CET 7:59 PM CET
Moon 4:20 PM CET (3/14) 5:06 AM CET (3/14)
Length of Visible Light 12h 48m
Length of Day
11h 48m
Waxing Gibbous, 95% of the Moon is Illuminated
Mar 14
Waxing Gibbous
Mar 16
Full
Mar 24
Last Quarter
Mar 30
New
Apr 7
First Quarter

Hourly Weather History & Observations

Time (CET) Temp. Dew Point Humidity Pressure Visibility Wind Dir Wind Speed Gust Speed Precip Events Conditions
1:00 AM 42 °F 36 °F 73% 30.41 in - SSE 2.3 mph - -  
4:00 AM 41 °F 36 °F 77% 30.39 in - Calm Calm - -  
5:50 AM 37.4 °F 33.8 °F 87% 30.33 in - Calm Calm - N/A   Clear
6:50 AM 39.2 °F 33.8 °F 81% 30.33 in - Variable 2.3 mph - N/A   Clear
7:00 AM 38 °F 35 °F 82% 30.39 in 19 mi South 1.2 mph - -  
7:50 AM 39.2 °F 35.6 °F 87% 30.36 in - Calm Calm - N/A   Clear
8:50 AM 48.2 °F 39.2 °F 71% 30.36 in - Calm Calm - N/A   Clear
9:50 AM 55.4 °F 37.4 °F 51% 30.33 in - Calm Calm - N/A   Clear
10:00 AM 56 °F 38 °F 38% 30.35 in 19 mi SE 2.3 mph - -  
10:50 AM 59.0 °F 35.6 °F 42% 30.33 in - Calm Calm - N/A   Clear
11:50 AM 60.8 °F 35.6 °F 39% 30.30 in - Variable 3.5 mph - N/A   Clear
12:50 PM 66.2 °F 37.4 °F 35% 30.24 in - Variable 2.3 mph - N/A   Clear
1:00 PM 67 °F 38 °F 23% 30.23 in 19 mi South 2.3 mph - -  
1:50 PM 68.0 °F 41.0 °F 37% 30.21 in - Variable 2.3 mph - N/A   Clear
2:50 PM 71.6 °F 37.4 °F 29% 30.18 in - Variable 2.3 mph - N/A   Clear
3:50 PM 71.6 °F 37.4 °F 29% 30.12 in - Variable 2.3 mph - N/A   Clear
4:00 PM 73 °F 40 °F 20% 30.12 in 19 mi SSW 5.8 mph - -  
4:50 PM 69.8 °F 35.6 °F 28% 30.12 in - SSW 5.8 mph - N/A   Clear
5:50 PM 66.2 °F 41.0 °F 40% 30.12 in - Variable 2.3 mph - N/A   Clear
6:50 PM 64.4 °F 37.4 °F 37% 30.15 in - ESE 4.6 mph - N/A   Clear
7:00 PM 60 °F 39 °F 34% 30.16 in 19 mi South 2.3 mph - -  
7:50 PM 53.6 °F 41.0 °F 62% 30.18 in - Variable 1.2 mph - N/A   Clear
8:50 PM 53.6 °F 39.2 °F 58% 30.18 in - Variable 1.2 mph - N/A   Clear
9:50 PM 51.8 °F 39.2 °F 62% 30.21 in - Variable 2.3 mph - N/A   Clear
10:00 PM 50 °F 39 °F 55% 30.23 in 12 mi West 1.2 mph - -  
10:50 PM 50.0 °F 39.2 °F 66% 30.21 in - Variable 2.3 mph - N/A   Clear